Torna al catalogo

STARLINK-11617

AttivoComunicazioniVLEO
NORAD 63184·PAYLOAD·🇺🇸 United States

Lanciato Mar 13, 2025 da Cape Canaveral Space Force Station

Loading…

Prossimi Passaggi (prossime 24 ore)

TLE

AggiornatoSource: CelesTrak SupGP

Epoca: Sep 14, 2026, 20:51 UTC

1 63184C 25048B   26257.86923611  .00014072  00000+0  10933-3 0  2578
2 63184  43.0007 259.8189 0001611 254.0375  32.1645 15.70823210    16

Traccia STARLINK-11617 in tempo reale con AllMySat

Download on the App Store